Regional Weather Roundup
Issued by NWS

Home | Current Version | Previous Version | Graphics & Text | Print | Product List | Glossary On
Versions: 1 2 3 4 5 6 7 8 9 10 11 12 13 14 15 16 17 18 19 20 21 22 23 24 25 26 27 28
000
ASUS45 KCYS 171410
RWRWY

WYOMING REGIONAL WEATHER ROUNDUP
NATIONAL WEATHER SERVICE CHEYENNE WY
700 AM MST FRI NOV 17 2017

NOTE:  "FAIR" INDICATES FEW OR NO CLOUDS BELOW 12,000 FEET
WITH NO SIGNIFICANT WEATHER AND/OR OBSTRUCTIONS TO VISIBILITY.

WYZ001-171500-
YELLOWSTONE NATIONAL PARK

CITY           SKY/WX    TMP DP  RH WIND       PRES   REMARKS
LK YELLOWSTONE   N/A     24  23  96 W7G21     29.66R WCI  16
W YELLOWSTONE  NOT AVBL

$$
WYZ002>013-054>058-071-098>099-171500-
NORTHERN WYOMING

CITY           SKY/WX    TMP DP  RH WIND       PRES   REMARKS
JACKSON        CLOUDY    32  25  75 S12       29.66F WCI  23
CODY           MIX PCPN  32  30  92 N3        29.63F
GREYBULL       MOCLDY    35  32  88 CALM      29.62S
WORLAND        FAIR      31  30  96 E3        29.61F
SHERIDAN       LGT SNOW  33  33 100 SW3       29.68S FOG
BUFFALO        SNOW      32  30  92 E5        29.69R VSB 1/2 WCI  27
GILLETTE       CLOUDY    33  32  96 CALM      29.67R
HULETT         MIX PCPN  34  32  93 CALM      29.68R
NEWCASTLE      CLOUDY    36  34  93 SE9       29.67R WCI  29

$$
WYZ014>020-022>026-101>103-171500-
CENTRAL WYOMING

CITY           SKY/WX    TMP DP  RH WIND       PRES   REMARKS
BIG PINEY      LGT SNOW  32  31  96 SE3       29.70F FOG
PINEDALE       CLOUDY    30  30 100 CALM      29.69F
DUBOIS         FAIR      27  19  74 W12       29.62S WCI  16
LANDER         CLOUDY    40  33  76 SW9       29.64S WCI  34
RIVERTON       FAIR      37  32  82 W5        29.64R WCI  33
CASPER         CLOUDY    34  33  96 NW5       29.66R WCI  30
DOUGLAS        CLOUDY    41  39  93 SW7       29.65F

$$
WYZ021-027>030-104>119-171500-
SOUTHERN WYOMING

CITY           SKY/WX    TMP DP  RH WIND       PRES   REMARKS
EVANSTON       SNOW      33  33 100 NW6       29.74R VSB 1/2 WCI  28
FORT BRIDGER   SNOW      33  33 100 CALM      29.77R VSB 1/2
ROCK SPRINGS   SNOW      31  31 100 SW6       29.73F VSB 1/2 WCI  25
DIXON          CLOUDY    40  37  86 E6        29.75F
RAWLINS        LGT RAIN  38  36  92 W15       29.72R WCI  29
SARATOGA       DRIZZLE   36  36 100 SW9       29.73F WCI  29
LARAMIE        LGT RAIN  37  36  96 N7        29.73R WCI  32
CHEYENNE       FAIR      49  30  48 W14       29.66S
TORRINGTON     LGT RAIN  40  30  67 NE12      29.68R WCI  33
PINE BLUFFS    FAIR      36  28  75 N7        29.65R WCI  30

$$




USA.gov is the U.S. government's official web portal to all federal, state and local government web resources and services.